[[{"header":{"parameterUnit":"m.s-1","parameterCategory":1,"la1":30.2992,"la2":30.254,"lo1":-89.0895,"lo2":-89.0443,"dy":0.0025,"dx":0.0025,"nx":19,"ny":19,"refTime":"2026-05-13T03:00:00:Z","depth":0,"parameterNumber":2,"parameterNumberName":"U-component_of_WINDS"},"data":[0,0,0,-0.9715,-0.9717,-0.9784,-0.9784,-0.9892,-0.9893,0,0,0,0,0,0,0,0,0,0,0,-0.9707,-0.9708,-0.9715,-0.9717,-0.9784,-0.9784,-0.9892,-0.9893,0,0,0,0,0,0,0,0,0,0,0,-0.9707,-0.9708,-0.9709,-0.9717,-0.9784,-0.9784,-0.9891,-0.9833,0,0,0,0,0,0,0,0,0,0,-0.9764,-0.9769,-0.9708,-0.9709,-0.9717,-0.9784,-0.9784,-0.983,-0.9837,-0.987,0,-0.9902,0,-0.9899,-0.9902,-0.9902,0,0,0,-0.9708,-0.9764,-0.977,-0.971,-0.9718,-0.9784,-0.9751,-0.9834,-0.9841,-0.988,-0.9904,-0.9907,-0.9901,-0.9902,-0.9903,-1.0122,-1.0123,0,0,-0.9704,-0.9727,-0.9765,-0.9776,-0.9765,-0.9749,-0.9753,-0.9838,-0.9867,-0.9904,-0.9909,-0.9903,-0.9903,-0.9904,-1.012,-1.0122,0,0,0,-0.97,-0.9724,-0.9728,-0.9772,-0.9782,-0.9751,-0.9756,-0.9863,-0.9862,-0.991,-0.9904,-0.9904,-0.9906,-1.0119,-1.0121,-1.0214,0,0,0,-0.9697,-0.9721,-0.9727,-0.9741,-0.9781,-0.9823,-0.9779,-0.9856,-0.9865,-0.9904,-0.9904,-0.9907,-1.0117,-1.012,-1.0208,-1.0256,0,0,0,-0.9699,-0.9721,-0.9735,-0.9742,-0.9772,-0.9821,-0.9825,-0.9858,-0.9862,-0.9902,-0.9907,-1.0116,-1.0119,-1.0202,-1.0247,-1.0321,0,0,0,-0.9708,-0.9817,-0.9737,-0.9857,-0.9771,-0.9877,-0.9824,-0.9902,-0.9947,-0.9905,-1.0117,-1.0121,-1.0201,-1.0241,-1.0315,-1.0389,-1.0421,0,0,-0.9859,-0.9836,-0.9905,-0.9835,-0.996,-0.9865,-1.0004,-1.0025,-1.0009,-1.0085,-1.009,-1.021,-1.0246,-1.0319,-1.0587,-1.0613,0,0,0,-0.996,-1.0011,-1.0039,-1.0082,-1.0099,-1.0118,-1.0115,-1.0123,-1.0186,-1.0052,-1.0254,-1.0275,-1.0317,-1.0352,-1.0374,-1.0409,-1.0137,-1.0136,-1.0136,-1.0209,-1.0181,-1.0293,-1.0272,-1.0314,-1.0309,-1.0341,-1.035,-1.0311,-1.0358,-1.0383,-1.0548,-1.0589,-1.0606,-1.0643,-1.0416,-1.0417,-1.0417,-1.0417,-1.043,-1.0498,-1.0439,-1.0527,-1.0496,-1.057,-1.0568,-1.0537,-1.0602,-1.0528,-1.0564,-1.0489,-1.0635,-1.0666,-1.0424,-1.0423,-1.0422,-1.0421,-1.0421,-1.0593,-1.0621,-1.0625,-1.0684,-1.0732,-1.0706,-1.0771,-1.074,-1.0712,-1.0747,-1.0769,-1.0768,-1.0765,-1.0759,-1.0759,-1.076,-1.076,-1.0761,-1.0761,-1.0762,-1.0764,-1.0822,-1.0847,-1.087,-1.0896,-1.0889,-1.0911,-1.0928,-1.0901,-1.0901,-1.0858,-1.0652,-1.0603,-1.077,-1.0768,-1.0767,-1.0766,-1.0766,-1.1004,-1.0943,-1.1033,-1.1055,-1.1081,-1.1132,-1.1089,-1.1136,-1.1149,-1.1183,-1.1129,-1.0982,-1.0958,-1.0941,-1.09,-1.1134,-1.1134,-1.1134,-1.1134,-1.1144,-1.1126,-1.121,-1.1249,-1.1282,-1.1252,-1.1355,-1.1349,-1.1335,-1.1341,-1.1302,-1.1244,-1.1227,-1.1214,-1.119,-1.1152,-1.1445,-1.1445,-1.1445,-1.1292,-1.1276,-1.137,-1.1352,-1.137,-1.1386,-1.1482,-1.1529,-1.1499,-1.1457,-1.1346,-1.1333,-1.1239,-1.121,-1.1171,-1.1135,-1.1065,0,0]},{"header":{"parameterUnit":"m.s-1","parameterCategory":1,"la1":30.2992,"la2":30.254,"lo1":-89.0895,"lo2":-89.0443,"dy":0.0025,"dx":0.0025,"nx":19,"ny":19,"refTime":"2026-05-13T03:00:00:Z","depth":0,"parameterNumber":3,"parameterNumberName":"V-component_of_WINDS"},"data":[0,0,0,-3.8468,-3.8473,-3.8672,-3.8673,-3.8926,-3.8928,0,0,0,0,0,0,0,0,0,0,0,-3.841,-3.8412,-3.8468,-3.8473,-3.8672,-3.8673,-3.8926,-3.8928,0,0,0,0,0,0,0,0,0,0,0,-3.8409,-3.8411,-3.8414,-3.8474,-3.8672,-3.8673,-3.8925,-3.8775,0,0,0,0,0,0,0,0,0,0,-3.8582,-3.8529,-3.8411,-3.8414,-3.8475,-3.8671,-3.8673,-3.8768,-3.8784,-3.8836,0,-3.8883,0,-3.891,-3.8945,-3.8946,0,0,0,-3.8472,-3.8516,-3.8568,-3.8414,-3.8477,-3.8671,-3.8582,-3.8777,-3.8796,-3.8858,-3.8887,-3.8896,-3.8914,-3.8947,-3.8948,-3.925,-3.9252,0,0,-3.8461,-3.8446,-3.8555,-3.8581,-3.8551,-3.8575,-3.8588,-3.8788,-3.8818,-3.8888,-3.8902,-3.8918,-3.8949,-3.8951,-3.9249,-3.9251,0,0,0,-3.843,-3.8439,-3.8487,-3.857,-3.8606,-3.8581,-3.8596,-3.881,-3.8826,-3.8905,-3.8921,-3.895,-3.8953,-3.9247,-3.925,-3.9308,0,0,0,-3.8423,-3.8421,-3.8482,-3.8475,-3.8603,-3.8711,-3.8612,-3.8813,-3.8836,-3.892,-3.895,-3.8956,-3.9246,-3.9249,-3.9303,-3.9338,0,0,0,-3.8397,-3.8417,-3.8447,-3.8474,-3.8559,-3.8708,-3.8736,-3.8818,-3.8846,-3.8946,-3.8956,-3.9245,-3.9248,-3.9298,-3.9331,-3.9413,0,0,0,-3.8364,-3.8495,-3.8447,-3.86,-3.8557,-3.8742,-3.8735,-3.8874,-3.8967,-3.8952,-3.9246,-3.9249,-3.9297,-3.9326,-3.9408,-3.9481,-3.9509,0,0,-3.8521,-3.8514,-3.8604,-3.8567,-3.8758,-3.8713,-3.8911,-3.901,-3.9033,-3.9176,-3.9184,-3.9304,-3.933,-3.9412,-3.9673,-3.9696,0,0,0,-3.8649,-3.8714,-3.8768,-3.8856,-3.8935,-3.9005,-3.9075,-3.9112,-3.9234,-3.9104,-3.9356,-3.9372,-3.9421,-3.9456,-3.9476,-3.9518,-3.9265,-3.9264,-3.9264,-3.8851,-3.8873,-3.9025,-3.907,-3.9156,-3.9226,-3.9297,-3.9358,-3.9355,-3.9414,-3.9457,-3.9613,-3.9654,-3.9668,-3.9713,-3.9496,-3.9496,-3.9497,-3.9497,-3.9084,-3.918,-3.9172,-3.9316,-3.9338,-3.9459,-3.9531,-3.9524,-3.9639,-3.9582,-3.9626,-3.9563,-3.9693,-3.9732,-3.9501,-3.9501,-3.95,-3.9499,-3.9499,-3.922,-3.927,-3.9312,-3.9441,-3.9537,-3.9578,-3.9689,-3.9704,-3.9719,-3.9762,-3.9809,-3.9809,-3.981,-3.9783,-3.9784,-3.9784,-3.9785,-3.9785,-3.9786,-3.9345,-3.939,-3.9482,-3.9576,-3.9634,-3.9712,-3.9782,-3.984,-3.9907,-3.9909,-3.9909,-3.99,-3.9701,-3.9651,-3.9794,-3.9793,-3.9792,-3.9791,-3.979,-3.9575,-3.9525,-3.9667,-3.9726,-3.9836,-3.993,-3.9947,-4.0062,-4.0111,-4.0165,-4.0146,-3.9996,-3.9989,-3.9974,-3.9933,-4.0141,-4.0141,-4.0141,-4.0141,-3.969,-3.9688,-3.9836,-3.9928,-4.0019,-4.0049,-4.0208,-4.0263,-4.0312,-4.0343,-4.0315,-4.0261,-4.0245,-4.0248,-4.0227,-4.0188,-4.0457,-4.0457,-4.0457,-3.9833,-3.984,-3.9973,-4.0021,-4.0108,-4.0181,-4.0331,-4.0435,-4.048,-4.047,-4.0368,-4.0355,-4.0268,-4.0239,-4.0228,-4.0195,-4.0126,0,0]}]]